www.pogodaiklimat.ru

Погода и климат >> Архив погоды >> Австралия >> Новый Южный Уэльс >> Брокен-Хилл аэропорт


ПОГОДА в Брокен-Хилл аэропорту

  • Прогноз погоды в Брокен-Хилл аэропорту
  • Монитор погоды в Брокен-Хилл аэропорту

АРХИВ ПОГОДЫ в Брокен-Хилл аэропорту

Время (UTC), дата Ветер
(напр.,м/с)
 
Видим.   Явления Облачность Т
(С)
Тd
(С)
f
(%)
Тe
(С)
Тes
(С)
Комфортность P
(гПа)
Po
(гПа)
Тmin
(С)
Tmax
(С)
R
(мм)
R24
(мм)
S
(см)
22 15.08 СЗ 5 н/о н/о +14.2 -7.8 21 +13 +13 1019.2 985.6
23 15.08 СЗ 6 н/о 4/0
[]
+16.9 -7.5 18 +16 +16 1019.5 985.9
00 16.08 СЗ 7 н/о н/о +19.1 -9.0 14 +18 +18 1019.1 985.5
01 16.08 СЗ 9 н/о н/о +20.3 -9.0 13 +19 +19 1019.1 985.5
02 16.08 СЗ 8 н/о 6/0
[]
+19.8 -9.4 13 +19 +19 1018.7 985.1 +13.5
03 16.08 СЗ 7 н/о н/о +20.3 -9.0 13 +19 +19 1018.2 984.6
04 16.08 З 8 н/о н/о +21.6 -9.0 12 +20 +20 1018.2 984.6
05 16.08 З 7 н/о 8/0
[]
+21.5 -9.1 12 +20 +20 1018.2 984.6
06 16.08 ЮЗ 7 н/о н/о +20.7 -8.7 13 +20 +20 1018.3 984.7
07 16.08 ЮЗ 5 н/о н/о +19.5 -8.7 14 +19 +19 1018.0 984.4
08 16.08 ЮЗ 3 н/о 10/0
[]
+18.1 -6.6 18 +18 +18 1018.3 984.7
09 16.08 ЮЗ 2 н/о н/о +16.7 -5.7 21 +17 +17 1018.5 984.9
10 16.08 Ю 2 н/о н/о +15.2 -6.3 22 +15 +15 1019.1 985.5
11 16.08 ЮЗ 3 н/о 10/0
[]
+14.1 -4.6 27 +14 +14 1019.7 986.1
12 16.08 ЮЗ 2 н/о н/о +14.1 -4.1 28 +14 +14 1019.7 986.1
13 16.08 Ю 4 н/о н/о +13.8 -1.4 35 +13 +13 1020.2 986.5
14 16.08 ЮВ 3 н/о 10/0 2000 м
[]
+13.5 -1.3 36 +13 +13 1020.0 986.3 +22.0
15 16.08 Ю 3 н/о н/о +12.6 +1.9 48 +11 +11 1019.8 986.2
16 16.08 Ю 2 н/о н/о +11.1 +1.4 51 +11 +11 1020.0 986.3
17 16.08 Ю 3 н/о 10/0
[]
+11.4 +5.5 67 +10 +10 1019.5 985.9
18 16.08 ЮВ 2 н/о н/о +10.6 +5.6 71 +9 +9 1018.9 985.3
19 16.08 Ю 3 н/о н/о +9.6 +5.6 76 +7 +7 1019.0 985.4
20 16.08 Ю 3 н/о 9/0
[]
+8.7 +5.3 79 +7 +7 1019.4 985.8
21 16.08 штиль 0 н/о н/о +8.1 +5.2 82 +7 +7 1019.8 986.2
22 16.08 ЮВ 1 н/о н/о +8.8 +5.9 82 +9 +9 1020.1 986.4
23 16.08 В 5 н/о н/о +12.4 +7.3 71 +10 +10 1020.4 986.7
00 17.08 В 6 н/о н/о +14.3 +7.4 63 +13 +13 1020.4 986.7
01 17.08 СВ 7 н/о н/о +16.3 +7.8 57 +15 +15 1019.8 986.2
02 17.08 В 7 н/о н/о +17.4 +6.6 49 +17 +17 1018.7 985.1 +7.9
03 17.08 СВ 5 н/о н/о +19.1 +4.8 39 +19 +19 1017.7 984.1
04 17.08 С 4 н/о н/о +20.9 +2.7 30 +21 +21 комфорт 1017.0 983.4
05 17.08 С 5 н/о н/о +21.7 +1.4 26 +21 +21 комфорт 1015.9 982.4
06 17.08 С 4 н/о н/о +22.7 -1.4 20 +22 +22 комфорт 1015.2 981.7
07 17.08 С 5 н/о н/о +22.1 -1.9 20 +21 +21 комфорт 1014.9 981.4
08 17.08 С 3 н/о 10/0
[]
+21.4 -2.5 20 +21 +21 комфорт 1015.2 981.7
09 17.08 С 3 н/о н/о +19.2 -3.0 22 +20 +20 1015.4 981.9
10 17.08 СВ 4 н/о н/о +17.4 -2.3 26 +17 +17 1015.5 982.0
11 17.08 СВ 4 н/о 10/0
[]
+16.0 -3.0 27 +16 +16 1015.6 982.1
12 17.08 С 4 н/о н/о +18.1 -5.2 20 +18 +18 1015.5 982.0
13 17.08 С 4 н/о н/о +17.6 -6.3 19 +17 +17 1015.0 981.5
14 17.08 С 4 н/о 6/0
[]
+16.4 -6.6 20 +16 +16 1014.7 981.2 +23.4
15 17.08 СВ 6 н/о н/о +13.5 -7.2 23 +12 +12 1013.6 980.2
16 17.08 СВ 5 н/о н/о +13.8 -8.1 21 +13 +13 1013.1 979.7
17 17.08 СВ 5 н/о н/о +13.5 -9.0 20 +12 +12 1012.2 978.8
18 17.08 СВ 6 н/о н/о +13.2 -8.6 21 +11 +11 1010.7 977.4
19 17.08 СВ 7 н/о н/о +13.0 -8.8 21 +11 +11 1010.0 976.7
20 17.08 С 6 н/о н/о +13.4 -7.9 22 +12 +12 1010.4 977.1
21 17.08 С 5 н/о н/о +15.2 -6.3 22 +14 +14 1011.0 977.6
22 17.08 СЗ 6 н/о н/о +16.5 -5.9 21 +16 +16 1011.4 978.0
23 17.08 З 8 н/о 5/0
[]
+15.5 -7.3 20 +14 +14 1012.5 979.1
00 18.08 З 8 н/о н/о +15.4 0.0 35 +14 +14 1012.8 979.4
01 18.08 ЮЗ 10 н/о н/о +15.6 +2.7 42 +14 +14 1013.0 979.6
02 18.08 З 10 н/о 4/0 2000 м
[]
+14.4 +2.0 43 +12 +12 1013.3 979.9 +11.8
03 18.08 З 10 н/о н/о +16.0 +2.1 39 +14 +14 1012.9 979.5
04 18.08 З 12 н/о н/о +16.9 -2.2 27 +15 +15 1013.0 979.6
05 18.08 З 13 н/о н/о +16.9 -5.5 21 +15 +15 1013.2 979.8
06 18.08 З 11 н/о н/о +16.6 -6.4 20 +15 +15 1013.5 980.1
07 18.08 З 11 н/о н/о +15.5 -5.5 23 +13 +13 1014.4 980.9
08 18.08 З 9 н/о н/о +14.1 -6.1 24 +12 +12 1015.1 981.6
09 18.08 З 7 н/о н/о +13.0 -6.5 25 +11 +11 1016.3 982.8
10 18.08 З 5 н/о н/о +11.8 -5.6 29 +10 +10 1017.6 984.0
11 18.08 ЮЗ 8 н/о 9/0 2000 м
[]
+11.2 -2.2 39 +8 +8 1018.6 985.0
12 18.08 ЮЗ 8 н/о н/о +10.8 0.0 47 +8 +8 1019.4 985.8
13 18.08 З 9 н/о н/о +9.2 +1.4 58 +5 +5 1019.7 986.1
14 18.08 З 8 н/о н/о +7.8 +1.6 65 +3 +3 1020.4 986.7 +18.6
15 18.08 З 8 н/о н/о +6.5 +1.2 69 +2 +2 1021.3 987.6
16 18.08 ЮЗ 6 н/о н/о +5.6 +1.0 72 +1 +1 1021.5 987.8
17 18.08 З 5 н/о н/о +4.9 +1.0 76 0 0 1021.8 988.1
18 18.08 ЮЗ 7 н/о н/о +4.9 +0.5 73 -1 -1 1022.1 988.4
19 18.08 ЮЗ 6 н/о н/о +4.4 +0.4 75 -1 -1 1022.8 989.1
20 18.08 ЮЗ 6 н/о н/о +4.1 +0.3 76 -1 -1 1023.7 989.9
21 18.08 ЮЗ 5 н/о н/о +3.4 -0.1 78 -2 -2 1024.8 991.0
22 18.08 З 5 н/о н/о +4.6 +0.6 75 0 0 1026.1 992.2
23 18.08 ЮЗ 8 н/о н/о +7.2 +1.1 65 +2 +2 1027.2 993.3
00 19.08 ЮЗ 8 н/о н/о +8.8 +0.5 56 +5 +5 1028.3 994.4
01 19.08 ЮЗ 9 н/о н/о +10.5 -0.3 47 +7 +7 1028.6 994.7
02 19.08 ЮЗ 8 н/о 1/1 1000 м
[]
+11.2 -1.5 41 +8 +8 1028.3 994.4 +3.4
03 19.08 ЮЗ 8 н/о н/о +12.4 -2.6 35 +10 +10 1028.0 994.1
04 19.08 ЮЗ 8 н/о н/о +12.9 -3.0 33 +10 +10 1027.8 993.9
05 19.08 ЮЗ 8 н/о н/о +14.2 -3.1 30 +12 +12 1027.5 993.6
06 19.08 ЮЗ 7 н/о н/о +13.8 -3.0 31 +12 +12 1027.5 993.6
07 19.08 ЮЗ 6 н/о н/о +13.4 -2.9 32 +12 +12 1027.7 993.8
08 19.08 ЮЗ 6 н/о н/о +12.2 -3.6 33 +10 +10 1028.4 994.5
09 19.08 ЮЗ 4 н/о н/о +10.2 -3.8 37 +8 +8 1029.4 995.4
10 19.08 З 3 н/о н/о +8.7 -3.5 42 +7 +7 1030.3 996.3
11 19.08 З 2 н/о н/о +7.3 -4.1 44 +6 +6 1031.1 997.1
12 19.08 штиль 0 н/о н/о +6.9 -3.3 48 +7 +7 1031.5 997.5
13 19.08 ЮЗ 2 н/о н/о +7.0 -3.0 49 +5 +5 1031.8 997.8
14 19.08 З 3 н/о н/о +5.4 -3.6 52 +3 +3 1031.8 997.8 +14.4
15 19.08 ЮЗ 3 н/о н/о +4.9 -2.7 58 +2 +2 1032.1 998.0
16 19.08 ЮЗ 2 н/о н/о +4.1 -2.7 61 +2 +2 1031.9 997.9
17 19.08 З 2 н/о н/о +4.3 -1.7 65 +2 +2 1031.5 997.5
18 19.08 З 2 н/о н/о +3.9 -1.1 70 +1 +1 1031.0 997.0
19 19.08 ЮЗ 2 н/о н/о +3.3 -0.9 74 +1 +1 1031.1 997.1
20 19.08 ЮЗ 2 н/о н/о +3.2 -0.4 77 +1 +1 1031.3 997.3
21 19.08 З 2 н/о н/о +3.0 +0.1 81 0 0 1031.8 997.8
22 19.08 З 3 н/о н/о +5.0 +2.0 81 +2 +2 1033.0 998.9
23 19.08 ЮЗ 3 н/о н/о +8.0 +3.3 72 +5 +5 1033.8 999.7
00 20.08 ЮЗ 5 н/о н/о +11.5 +4.3 61 +9 +9 1033.8 999.7
01 20.08 ЮЗ 6 н/о н/о +12.2 +3.9 57 +10 +10 1033.6 999.5
02 20.08 ЮЗ 5 н/о 1/1 600 м
[]
+13.1 +3.2 51 +11 +11 1033.0 998.9 +2.7
03 20.08 ЮЗ 6 н/о н/о +14.0 +2.9 47 +12 +12 1032.2 998.1
04 20.08 СЗ 7 н/о н/о +15.3 +2.1 41 +14 +14 1030.9 996.9
05 20.08 З 7 н/о н/о +15.8 +1.2 37 +14 +14 1030.4 996.4
06 20.08 З 7 н/о н/о +16.6 +1.1 35 +16 +16 1029.9 995.9
07 20.08 З 7 н/о н/о +16.1 -0.2 33 +15 +15 1029.6 995.6
08 20.08 З 5 н/о н/о +15.3 -0.9 33 +14 +14 1029.6 995.6
09 20.08 З 4 н/о н/о +13.4 -0.6 38 +12 +12 1029.5 995.5
10 20.08 З 4 н/о н/о +11.0 -0.8 44 +9 +9 1029.8 995.8
11 20.08 З 5 н/о н/о +10.9 +0.6 49 +9 +9 1030.1 996.1
12 20.08 ЮЗ 7 н/о н/о +11.5 +3.3 57 +9 +9 1030.3 996.3
13 20.08 ЮЗ 6 н/о н/о +10.5 +3.5 62 +7 +7 1030.2 996.2
14 20.08 З 4 н/о н/о +9.1 +3.1 66 +6 +6 1030.0 996.0 +16.8
15 20.08 ЮЗ 5 н/о н/о +8.2 +3.1 70 +5 +5 1029.7 995.7
16 20.08 ЮЗ 5 н/о н/о +8.7 +3.7 71 +6 +6 1029.1 995.1
17 20.08 ЮЗ 5 н/о 1/1 600 м
[]
+8.7 +4.3 74 +5 +5 1028.8 994.9
18 20.08 ЮЗ 6 н/о н/о +8.6 +4.4 75 +5 +5 1028.3 994.4
19 20.08 ЮЗ 5 н/о н/о +7.9 +3.9 76 +4 +4 1028.2 994.3
20 20.08 ЮЗ 4 н/о н/о +6.5 +3.1 79 +3 +3 1028.5 994.6
21 20.08 З 4 н/о н/о +6.7 +3.5 80 +3 +3 1028.8 994.9
22 20.08 З 3 н/о н/о +8.0 +4.4 78 +6 +6 1029.4 995.4
23 20.08 ЮЗ 6 н/о н/о +10.9 +5.0 67 +8 +8 1029.7 995.7
00 21.08 ЮЗ 8 н/о н/о +13.4 +5.8 60 +11 +11 1029.6 995.6
01 21.08 ЮЗ 7 н/о н/о +15.0 +6.0 55 +13 +13 1029.4 995.4
02 21.08 ЮЗ 6 н/о н/о +16.5 +5.2 47 +16 +16 1028.5 994.6 +6.0
03 21.08 З 7 н/о н/о +18.4 +3.5 37 +18 +18 1027.4 993.5
04 21.08 ЮЗ 8 н/о н/о +19.2 +2.6 33 +19 +19 1026.5 992.6
05 21.08 ЮЗ 8 н/о 1/1 1500 м
[]
+18.8 +3.4 36 +18 +18 1026.1 992.2
06 21.08 ЮЗ 8 н/о н/о +18.5 +3.2 36 +18 +18 1025.8 992.0
07 21.08 ЮЗ 7 н/о н/о +19.1 +3.3 35 +19 +19 1025.7 991.9
08 21.08 ЮЗ 6 н/о 9/9 1500 м
[]
+17.7 +3.2 38 +17 +17 1026.2 992.3
09 21.08 ЮЗ 8 н/о н/о +16.7 +2.7 39 +15 +15 1026.4 992.5
10 21.08 ЮЗ 7 н/о н/о +16.5 +3.9 43 +15 +15 1026.8 992.9
11 21.08 ЮЗ 7 н/о 9/9 1500 м
[]
+16.0 +4.4 46 +15 +15 1027.0 993.1
12 21.08 ЮЗ 7 н/о н/о +14.6 +5.1 53 +13 +13 1027.1 993.2
13 21.08 ЮЗ 7 н/о н/о +13.1 +5.3 59 +11 +11 1027.0 993.1
14 21.08 ЮЗ 6 н/о н/о +12.2 +5.8 65 +10 +10 1027.2 993.3 +19.8
15 21.08 ЮЗ 5 н/о н/о +11.3 +6.0 70 +9 +9 1027.4 993.5
16 21.08 ЮЗ 5 н/о н/о +10.3 +6.3 76 +8 +8 1027.5 993.6
17 21.08 ЮЗ 5 н/о 4/4 300 м
[]
+9.8 +6.9 82 +7 +7 1027.0 993.1
18 21.08 ЮЗ 4 н/о н/о +8.9 +6.5 85 +6 +6 1026.8 992.9
19 21.08 ЮЗ 5 н/о н/о +9.6 +6.9 83 +6 +6 1026.8 992.9
20 21.08 ЮЗ 6 н/о 10/10 100 м
[]
+9.4 +7.2 86 +6 +6 1027.1 993.2
21 21.08 ЮЗ 7 н/о н/о +9.5 +7.3 86 +6 +6 1027.5 993.6
22 21.08 ЮЗ 6 н/о н/о +9.7 +7.3 85 +6 +6 1028.0 994.1
23 21.08 ЮЗ 7 н/о 6/6 600 м
[]
+11.6 +6.9 73 +8 +8 1028.5 994.6
00 22.08 Ю 10 н/о н/о +12.2 +4.2 58 +9 +9 1028.8 994.9
01 22.08 Ю 9 н/о н/о +12.9 +4.1 55 +10 +10 1028.7 994.8
02 22.08 Ю 7 н/о н/о +14.8 +4.5 50 +13 +13 1027.8 993.9 +8.9
03 22.08 Ю 7 н/о н/о +15.4 +3.2 44 +14 +14 1026.9 993.0
04 22.08 Ю 6 н/о н/о +16.5 +3.9 43 +15 +15 1026.1 992.2
05 22.08 Ю 7 н/о н/о +16.7 +3.7 42 +16 +16 1025.8 992.0
06 22.08 Ю 7 н/о н/о +17.1 +3.4 40 +16 +16 1025.7 991.9
07 22.08 Ю 7 н/о н/о +17.0 +3.3 40 +16 +16 1025.7 991.9
08 22.08 Ю 7 н/о н/о +15.9 +3.7 44 +15 +15 1026.1 992.2
09 22.08 Ю 4 н/о н/о +14.2 +3.4 48 +13 +13 1026.6 992.7
10 22.08 Ю 6 н/о н/о +13.2 +4.4 55 +11 +11 1027.0 993.1
11 22.08 Ю 5 н/о н/о +11.9 +4.4 60 +10 +10 1027.4 993.5
12 22.08 Ю 4 н/о н/о +10.6 +3.9 63 +8 +8 1027.4 993.5
13 22.08 Ю 4 н/о н/о +9.9 +3.4 64 +7 +7 1027.1 993.2
14 22.08 Ю 5 н/о н/о +9.4 +3.4 66 +7 +7 1027.0 993.1 +17.8
15 22.08 ЮВ 4 н/о н/о +8.9 +3.5 69 +6 +6 1026.6 992.7
16 22.08 ЮВ 3 н/о н/о +8.4 +3.5 71 +6 +6 1026.4 992.5
17 22.08 Ю 3 н/о н/о +8.0 +3.3 72 +5 +5 1026.4 992.5
18 22.08 ЮВ 4 н/о н/о +7.6 +4.0 78 +4 +4 1026.2 992.3
19 22.08 ЮВ 4 н/о н/о +6.7 +3.9 82 +3 +3 1026.4 992.5
20 22.08 Ю 2 н/о н/о +5.5 +3.2 85 +4 +4 1026.6 992.7
21 22.08 ЮВ 2 н/о н/о +5.3 +3.6 89 +3 +3 1026.8 992.9
22 22.08 В 3 н/о н/о +7.9 +5.5 85 +5 +5 1027.1 993.2

 

Местоположение метеостанции Брокен-Хилл аэропорт (Новый Южный Уэльс, Австралия): широта -32.00 долгота 141.46 высота над уровнем моря 282 м.

В архиве по умолчанию представлена погода в Брокен-Хилл аэропорту за последнюю неделю. Архивные данные за месяц целиком и за предыдущие месяцы, начиная с января 2011 года, Вы можете получить, выбрав интересующий диапазон дат из раскрывающегося списка и нажав кнопку "Ввод!".


*Определитесь, кто Вы:
робот инопланетянин человек

Внимание! Время в таблицах - всемирное. Для получения местного времени необходимо прибавить поправку, которая равна 10 ч.

Смотрите также архив погоды в соседних городах и на ближайших метеорологических станциях:

Погода в Фоулерс Гэп (Новый Южный Уэльс, Австралия) (105 км)
Погода в Юнте (Южная Австралия, Австралия) (189 км)
Погода в Уилкании (Новый Южный Уэльс, Австралия) (189 км)
Погода в Уафт Клифс (Новый Южный Уэльс, Австралия) (199 км)
Погода в Милдьюре (Новый Южный Уэльс, Австралия) (255 км)
Погода в Ренмарке (Южная Австралия, Австралия) (255 км)
Погода в Локстоне (Южная Австралия, Австралия) (282 км)
Погода в Айванхо (Новый Южный Уэльс, Австралия) (286 км)
Погода в Тибообере (Новый Южный Уэльс, Австралия) (289 км)
Погода в Ли-Крике (Южная Австралия, Австралия) (328 км)

Пояснения к столбцам:

Ветер - указаны скорость ветра в м/с - средняя за 10 мин, порывы в срок и между сроками (в фигурных скобках) и направление, откуда дует ветер: С - северный, СВ - северо-восточный, В - восточный, ЮВ - юго-восточный, Ю - южный, ЮЗ - юго-западный, З - западный, СЗ - северо-западный.
Видимость - горизонтальная дальность видимости в метрах или километрах. При видимости от 1 до 10 км при отсутствии осадков обычно наблюдается дымка, при ухудшении видимости до 1 км и менее - туман. В сухую погоду видимость может ухудшаться дымом, пылью или мглою.
Явления - указаны атмосферные явления, наблюдавшиеся в срок или в последний час перед сроком; фигурными скобками обозначены явления, наблюдавшиеся между сроками (за 1-3 часа до срока); квадратными скобками обозначены град или гололедные отложения с указанием их диаметра в мм.
Облачность - указаны через наклонную черту общая и нижняя облачность в баллах и высота нижней границы облаков в метрах; квадратными скобками обозначены формы облаков: Ci - перистые, Cs - перисто-слоистые, Cc - перисто-кучевые, Ac - высококучевые, As - высокослоистые, Sc - слоисто-кучевые, Ns - слоисто-дождевые, Cu - кучевые, Cb - кучево-дождевые. Подробнее классификацию облаков см. в Атласе облаков (PDF).
T - Температура воздуха - температура, измеренная на высоте 2 м над землей.
Td - Температура точки росы - температура, при понижении до которой содержащийся в воздухе водяной пар достигнет насыщения.
f - Относительная влажность воздуха - влажноcть воздуха, измеренная на высоте 2 м над землей.
Te - Эффективная температура - температура, которую ощущает одетый по сезону человек в тени. Характеристика душности погоды. При расчете учитывается влияние влажности воздуха и скорости ветра на теплоощущения человека.
Tes - Эффективная температура на солнце - температура, которую ощущает человек, с поправкой на солнечный нагрев. Характеристика знойности погоды. Зависит от высоты солнца над горизонтом, облачности и скорости ветра. Ночью, в пасмурную погоду, а также при ветре 12 м/с и более поправка равна нулю.
P - Атмосферное давление - приведенное к уровню моря атмосферное давление.
Po - Атмосферное давление - измеренное на уровне метеостанции атмосферное давление.
Tmin - Минимальная температура - минимум температуры воздуха на высоте 2 м над землей.
Tmax - Максимальная температура - максимум температуры воздуха на высоте 2 м над землей.
R - Количество осадков - Количество выпавших осадков за период времени, мм. При наведении курсора мыши на число - период времени, за который выпало указанное количество осадков.
R24 - Количество осадков - Количество выпавших осадков за 24 часа, мм.
S - Снежный покров - Высота снежного покрова, см. При наведении курсора мыши на число - состояние снежного покрова и степень покрытия местности в баллах.